This is the latest recevied telemetry packets stored in our database for station/object OK4AB-13. If no packets are shown the sender has not sent any telemetry packets the latest 1 day(s).
Telemetry packets is used to share measurements like repeteater parameters, battery voltage, radiation readings (or any other measurements).
| Time | Temperatu* | Humidity* | BARO* | Battery* | Satellite* |
|---|---|---|---|---|---|
| 1777734490 | 27.32 C | 43.63 % | 979.1 hPa | 0 v | 12 |
| 1777734310 | 27.32 C | 43.63 % | 979.1 hPa | 0 v | 12 |
| 1777734250 | 27.34 C | 43.62 % | 979.1 hPa | 0 v | 12 |
| 1777734130 | 27.35 C | 43.61 % | 979.2 hPa | 0 v | 12 |
| 1777734069 | 27.35 C | 43.61 % | 979.2 hPa | 0 v | 12 |
| 1777733950 | 27.36 C | 43.71 % | 979.2 hPa | 0 v | 12 |
| 1777733830 | 27.37 C | 43.75 % | 979.2 hPa | 0 v | 12 |
| 1777733770 | 27.37 C | 43.71 % | 979.2 hPa | 0 v | 12 |
| 1777733589 | 27.38 C | 43.71 % | 979.2 hPa | 0 v | 12 |
| 1777733410 | 27.4 C | 43.71 % | 979.3 hPa | 0 v | 12 |
| 1777733229 | 27.42 C | 43.68 % | 979.3 hPa | 0 v | 12 |
| 1777733169 | 27.43 C | 43.67 % | 979.3 hPa | 0 v | 12 |
| 1777733050 | 27.44 C | 43.71 % | 979.4 hPa | 0 v | 12 |
| 1777732989 | 27.45 C | 43.7 % | 979.4 hPa | 0 v | 12 |
| 1777732870 | 27.46 C | 43.71 % | 979.4 hPa | 0 v | 12 |
| 1777732690 | 27.48 C | 43.64 % | 979.4 hPa | 0 v | 12 |
| 1777732510 | 27.53 C | 43.65 % | 979.5 hPa | 0 v | 12 |
| 1777732449 | 27.54 C | 43.64 % | 979.5 hPa | 0 v | 12 |
| 1777732329 | 27.57 C | 43.62 % | 979.5 hPa | 0 v | 12 |
| 1777732269 | 27.6 C | 43.61 % | 979.5 hPa | 0 v | 12 |
| 1777732150 | 27.63 C | 43.58 % | 979.6 hPa | 0 v | 12 |
| 1777731969 | 27.7 C | 43.55 % | 979.6 hPa | 0 v | 12 |
| 1777731909 | 27.71 C | 43.58 % | 979.6 hPa | 0 v | 12 |
| 1777731789 | 27.73 C | 43.48 % | 979.7 hPa | 0 v | 12 |
| 1777731729 | 27.76 C | 43.63 % | 979.7 hPa | 0 v | 12 |
*Used Equation Coefficients:
Temperatu: 0, 0.01, 0
Humidity: 0, 0.01, 0
BARO: 0, 0.1, 800
Battery: 0, 0.01, 0
Satellite: 0, 1, 0
- The parameter names for the analog channels will be Value1, Value2, Value3 (up to Value5) if station has not sent a PARAM-packet that specifies the parameter names for each analog channel.
- Each analog value is a decimal number between 000 and 255 (according to APRS specifications). The receiver use the telemetry equation coefficientsto to restore the original sensor values. If no EQNS-packet with equation coefficients is sent we will show the values as is (this corresponds to the equation coefficients a=0, b=1 and c=0).
The sent equation coefficients is used in the equation: a * value2 + b * value + c. - The units for the analog values will not be shown if station has not sent a UNIT-packet specifying what unit's to use.
- The parameter names for the digital bits will be Bit1, Bit2, Bit3 (up to Bit8) if station has not sent a PARAM-packet that specifies the parameter names for each digital bit.
- All bit labels will be named "On" if station has not sent a UNIT-packet that specifies the label of each bit.
- A bit is considered to be On when the bit is 1 if station has not sent a BITS-packet that specifies another "Bit sense" (a BITS-packet specify the state of the bits that match the BIT labels)